Location: Beuerbach
(48.1459°N, 10.9174°E)
Time: 03:10:06
(UTC+00:00)

Cosmos 2333 Rocket - Pass Details

Date: 23 May 2024
Orbit: 838 x 863 km, 70.8° (Epoch: 19 June)

Event Time Altitude Azimuth Distance (km) Brightness Sun altitude
Rises 02:30:53 0° 326° (NW) 3,426 5.5 -8.2°
Reaches altitude 10° 02:33:28 10° 319° (NW) 2,490 4.7 -7.9°
Maximum altitude 02:38:43 39° 253° (WSW) 1,264 2.7 -7.3°
Drops below altitude 10° 02:43:59 10° 186° (S) 2,488 4.2 -6.6°
Sets 02:46:34 0° 179° (S) 3,423 5.0 -6.3°
